Marseille, France

9:18 PM CEST on April 25, 2017 (GMT +0200)
Marseille / Provence

Weather History for LFML - July, 2013

Change the Weather History Date:

Wednesday, July 10, 2013

  Actual Average Record
Temperature  
Mean Temperature 78 °F -  
Max Temperature 88 °F 84 °F 92 °F (2015)
Min Temperature 68 °F 65 °F 59 °F (2007)
Cooling Degree Days 13    
Growing Degree Days 28 (Base 50)    
Moisture  
Dew Point 60 °F    
Average Humidity 56    
Maximum Humidity 73    
Minimum Humidity 31    
Precipitation  
Precipitation 0.02 in 0.02 in - ()
Sea Level Pressure  
Sea Level Pressure 29.96 in    
Wind  
Wind Speed 6 mph ()    
Max Wind Speed 18 mph    
Max Gust Speed -    
Visibility 7.1 miles    
Events Rain    
Averages and records for this station are not official NWS values.
T = Trace of Precipitation, MM = Missing Value Source: Averaged Metar Reports

Daily Weather History Graph

Daily Weather History Graph

Search for Another Location

Airport or City:

Trip Planner

Search our weather history database for the weather conditions in past years. The results will help you decide how hot, cold, wet, or windy it might be!

Date:

Astronomy

Jul. 10, 2013 Rise Set
Actual Time 6:07 AM CEST 9:20 PM CEST
Civil Twilight 5:33 AM CEST 9:55 PM CEST
Nautical Twilight 4:47 AM CEST 10:40 PM CEST
Astronomical Twilight 3:52 AM CEST 11:35 PM CEST
Moon 8:19 AM CEST (7/10) 10:15 PM CEST (7/10)
Length of Visible Light 16h 22m
Length of Day
15h 12m
Waxing Crescent, 4% of the Moon is Illuminated
Jul 10
Waxing Crescent
Jul 16
First Quarter
Jul 22
Full
Jul 29
Last Quarter
Aug 6
New

Hourly Weather History & Observations

Time (CEST) Temp. Heat Index Dew Point Humidity Pressure Visibility Wind Dir Wind Speed Gust Speed Precip Events Conditions
12:00 AM 75.2 °F - 57.2 °F 53% 30.04 in - Calm Calm - N/A   Clear
12:30 AM 77.0 °F - 60.8 °F 57% 30.04 in - Variable 3.5 mph - N/A   Clear
1:00 AM 73.4 °F - 59.0 °F 61% 30.04 in - Variable 2.3 mph - N/A   Clear
1:30 AM 71.6 °F - 60.8 °F 69% 30.04 in 6.2 mi Variable 2.3 mph - N/A   Unknown
2:00 AM 70 °F - 59 °F 60% 30.02 in 11 mi SE 6.9 mph - -   Clear
2:00 AM 69.8 °F - 59.0 °F 68% 30.01 in 6.2 mi SE 6.9 mph - N/A   Unknown
2:30 AM 69.8 °F - 59.0 °F 68% 30.01 in 6.2 mi ESE 5.8 mph - N/A   Unknown
3:00 AM 71.6 °F - 57.2 °F 60% 30.01 in 6.2 mi ESE 4.6 mph - N/A   Unknown
3:30 AM 69.8 °F - 59.0 °F 68% 30.01 in 6.2 mi SE 4.6 mph - N/A   Unknown
4:00 AM 69.8 °F - 59.0 °F 68% 30.01 in 6.2 mi ESE 4.6 mph - N/A   Unknown
4:30 AM 69.8 °F - 59.0 °F 68% 30.01 in 6.2 mi East 5.8 mph - N/A   Unknown
5:00 AM 69.8 °F - 59.0 °F 68% 29.98 in 6.2 mi NE 5.8 mph - N/A   Unknown
5:30 AM 71.6 °F - 59.0 °F 64% 29.98 in 6.2 mi ENE 4.6 mph - N/A   Unknown
6:00 AM 68.0 °F - 59.0 °F 73% 29.98 in - ESE 6.9 mph - N/A   Clear
6:30 AM 69.8 °F - 59.0 °F 68% 29.98 in - ENE 4.6 mph - N/A   Clear
7:00 AM 69.8 °F - 59.0 °F 68% 29.98 in - ENE 5.8 mph - N/A   Clear
7:30 AM 73.4 °F - 60.8 °F 65% 29.98 in - ESE 3.5 mph - N/A   Clear
8:00 AM 74 °F - 61 °F 54% 29.98 in 37 mi ENE 3.5 mph - -   Clear
8:00 AM 75.2 °F - 60.8 °F 61% 29.98 in - Variable 3.5 mph - N/A   Clear
8:30 AM 75.2 °F - 60.8 °F 61% 29.98 in - Variable 2.3 mph - N/A   Clear
9:00 AM 75.2 °F - 62.6 °F 65% 29.98 in - WNW 4.6 mph - N/A   Clear
9:30 AM 77.0 °F - 62.6 °F 61% 29.98 in - WNW 3.5 mph - N/A   Clear
10:00 AM 78.8 °F - 62.6 °F 57% 29.98 in - West 4.6 mph - N/A   Clear
10:30 AM 80.6 °F 81.8 °F 62.6 °F 54% 29.98 in - WSW 6.9 mph - N/A   Clear
11:00 AM 80.6 °F 81.8 °F 62.6 °F 54% 29.98 in - WSW 8.1 mph - N/A   Clear
11:30 AM 82.4 °F 82.9 °F 60.8 °F 48% 29.95 in - WSW 8.1 mph - N/A   Clear
12:00 PM 82.4 °F 82.9 °F 60.8 °F 48% 29.95 in - WSW 6.9 mph - N/A   Clear
12:30 PM 86.0 °F 84.9 °F 57.2 °F 37% 29.95 in - WSW 5.8 mph - N/A   Clear
1:00 PM 86.0 °F 84.9 °F 57.2 °F 37% 29.95 in 6.2 mi West 5.8 mph - N/A   Partly Cloudy
1:30 PM 86.0 °F 85.4 °F 59.0 °F 40% 29.95 in 6.2 mi WSW 8.1 mph - N/A   Partly Cloudy
2:00 PM 87 °F - 64 °F 36% 29.94 in 37 mi WSW 9.2 mph - -   Scattered Clouds
2:00 PM 87.8 °F 88.5 °F 62.6 °F 43% 29.92 in 6.2 mi WSW 8.1 mph - N/A   Partly Cloudy
2:30 PM 87.8 °F 88.5 °F 62.6 °F 43% 29.92 in 6.2 mi SW 13.8 mph - N/A   Partly Cloudy
3:00 PM 87.8 °F 88.5 °F 62.6 °F 43% 29.92 in 6.2 mi WSW 15.0 mph - N/A   Partly Cloudy
3:30 PM 87.8 °F 87.6 °F 60.8 °F 40% 29.89 in 6.2 mi SW 13.8 mph - N/A   Partly Cloudy
4:00 PM 87.8 °F 87.6 °F 60.8 °F 40% 29.89 in 6.2 mi SW 13.8 mph - N/A   Partly Cloudy
4:30 PM 87.8 °F 87.6 °F 60.8 °F 40% 29.89 in 6.2 mi WSW 15.0 mph - N/A   Partly Cloudy
5:00 PM 87.8 °F 87.1 °F 59.0 °F 38% 29.89 in 6.2 mi WSW 13.8 mph - N/A   Partly Cloudy
5:30 PM 87.8 °F 87.1 °F 59.0 °F 38% 29.89 in 6.2 mi WSW 11.5 mph - N/A   Partly Cloudy
6:00 PM 86 °F - 60 °F 31% 29.91 in 37 mi WSW 13.8 mph - -   Scattered Clouds
6:00 PM 84.2 °F 84.4 °F 60.8 °F 45% 29.89 in 6.2 mi WSW 13.8 mph - N/A   Partly Cloudy
6:30 PM 82.4 °F 83.4 °F 62.6 °F 51% 29.92 in 6.2 mi WSW 11.5 mph - N/A   Scattered Clouds
7:00 PM 80 °F - 62 °F 44% 29.95 in 37 mi SW 8.1 mph - -   Partly Cloudy
7:00 PM 80.6 °F 81.8 °F 62.6 °F 54% 29.95 in 6.2 mi WSW 9.2 mph - N/A   Mostly Cloudy
7:30 PM 73.4 °F - 62.6 °F 69% 29.95 in 6.2 mi NNE 18.4 mph - N/A Rain Light Rain
8:00 PM 73 °F - 61 °F 57% 29.92 in 12 mi NE 12.7 mph - - Rain Light Rain
8:00 PM 73.4 °F - 60.8 °F 65% 29.92 in 6.2 mi NE 12.7 mph - N/A Rain Light Rain
8:30 PM 73.4 °F - 60.8 °F 65% 29.92 in 6.2 mi NNE 9.2 mph - N/A   Mostly Cloudy
9:00 PM 73.4 °F - 59.0 °F 61% 29.92 in 6.2 mi NE 11.5 mph - N/A   Mostly Cloudy
9:30 PM 71.6 °F - 59.0 °F 64% 29.92 in 6.2 mi NE 5.8 mph - N/A   Mostly Cloudy
10:00 PM 72 °F - 59 °F 54% 29.92 in 12 mi ENE 3.5 mph - - Rain Light Rain
10:00 PM 71.6 °F - 59.0 °F 64% 29.92 in 6.2 mi ENE 3.5 mph - N/A   Mostly Cloudy
10:30 PM 73.4 °F - 59.0 °F 61% 29.92 in - NNE 4.6 mph - N/A   Clear
11:00 PM 74 °F - 60 °F 53% 29.92 in 19 mi NW 4.6 mph - -   Partly Cloudy
11:00 PM 73.4 °F - 59.0 °F 61% 29.92 in - NW 4.6 mph - N/A   Clear
11:30 PM 73.4 °F - 62.6 °F 69% 29.92 in - NW 4.6 mph - N/A   Clear